| time (UTC) | temp F | wind direction | speed MPH | gust MPH | rain 1hr in | rain 24hr in | rain mn in | humidity % | barometer mb |
| 20260508092018 | 73 | 132 | 4.0 | 7.0 | 0.00 | 0.00 | 0.00 | 40 | 1020.4 |
| 20260508091030 | 72 | 134 | 4.0 | 9.0 | 0.00 | 0.00 | 0.00 | 40 | 1020.4 |
| 20260508090022 | 72 | 139 | 7.0 | 10.0 | 0.00 | 0.00 | 0.00 | 41 | 1020.4 |
| 20260508085019 | 73 | 135 | 5.0 | 9.0 | 0.00 | 0.00 | 0.00 | 40 | 1020.5 |
| 20260508084053 | 72 | 96 | 3.0 | 10.0 | 0.00 | 0.00 | 0.00 | 42 | 1020.4 |
| 20260508083024 | 71 | 117 | 3.0 | 7.0 | 0.00 | 0.00 | 0.00 | 46 | 1020.5 |
| 20260508082035 | 71 | 125 | 3.0 | 4.0 | 0.00 | 0.00 | 0.00 | 43 | 1020.5 |
| 20260508081030 | 71 | 133 | 2.0 | 5.0 | 0.00 | 0.00 | 0.00 | 43 | 1020.3 |
| 20260508080023 | 72 | 126 | 4.0 | 8.0 | 0.00 | 0.00 | 0.00 | 39 | 1019.9 |
| 20260508075057 | 73 | 121 | 2.0 | 4.0 | 0.00 | 0.00 | 0.00 | 37 | 1019.6 |
| 20260508074028 | 73 | 123 | 2.0 | 6.0 | 0.00 | 0.00 | 0.00 | 38 | 1019.5 |
| 20260508073025 | 72 | 94 | 3.0 | 7.0 | 0.00 | 0.00 | 0.00 | 37 | 1019.3 |
| 20260508072018 | 72 | 96 | 2.0 | 6.0 | 0.00 | 0.00 | 0.00 | 36 | 1019.2 |
| 20260508071032 | 72 | 157 | 1.0 | 10.0 | 0.00 | 0.00 | 0.00 | 36 | 1019.0 |
| 20260508070023 | 72 | 160 | 8.0 | 12.0 | 0.00 | 0.00 | 0.00 | 36 | 1018.8 |
| 20260508065040 | 73 | 127 | 8.0 | 11.0 | 0.00 | 0.00 | 0.00 | 36 | 1018.6 |
| 20260508064032 | 73 | 159 | 6.0 | 15.0 | 0.00 | 0.00 | 0.00 | 37 | 1018.5 |
| 20260508063025 | 70 | 153 | 8.0 | 12.0 | 0.00 | 0.00 | 0.00 | 37 | 1018.2 |
| 20260508062023 | 70 | 166 | 6.0 | 10.0 | 0.00 | 0.00 | 0.00 | 38 | 1018.1 |
| 20260508061017 | 69 | 148 | 4.0 | 7.0 | 0.00 | 0.00 | 0.00 | 41 | 1018.0 |
| 20260508060026 | 69 | 163 | 5.0 | 10.0 | 0.00 | 0.00 | 0.00 | 39 | 1017.6 |
| 20260508055019 | 67 | 153 | 5.0 | 10.0 | 0.00 | 0.00 | 0.00 | 40 | 1017.5 |
| 20260508054016 | 67 | 165 | 6.0 | 9.0 | 0.00 | 0.00 | 0.00 | 40 | 1017.3 |
| 20260508053027 | 66 | 174 | 6.0 | 9.0 | 0.00 | 0.00 | 0.00 | 39 | 1017.1 |
| 20260508052040 | 66 | 156 | 6.0 | 10.0 | 0.00 | 0.00 | 0.00 | 39 | 1017.1 |
| 20260508051031 | 66 | 150 | 7.0 | 12.0 | 0.00 | 0.00 | 0.00 | 38 | 1017.2 |
| 20260508050046 | 66 | 158 | 6.0 | 10.0 | 0.00 | 0.00 | 0.00 | 38 | 1017.3 |
| 20260508045017 | 66 | 185 | 6.0 | 8.0 | 0.00 | 0.00 | 0.00 | 37 | 1017.5 |
| 20260508044028 | 65 | 178 | 5.0 | 7.0 | 0.00 | 0.00 | 0.00 | 38 | 1017.6 |
| 20260508043020 | 65 | 169 | 6.0 | 9.0 | 0.00 | 0.00 | 0.00 | 37 | 1017.4 |
| 20260508042037 | 64 | 180 | 6.0 | 8.0 | 0.00 | 0.00 | 0.00 | 39 | 1017.2 |
| 20260508041029 | 65 | 169 | 5.0 | 8.0 | 0.00 | 0.00 | 0.00 | 37 | 1017.3 |
| 20260508040043 | 65 | 157 | 6.0 | 8.0 | 0.00 | 0.00 | 0.00 | 36 | 1017.1 |
| 20260508035029 | 65 | 175 | 3.0 | 7.0 | 0.00 | 0.00 | 0.00 | 37 | 1016.9 |
| 20260508034043 | 65 | 190 | 6.0 | 9.0 | 0.00 | 0.00 | 0.00 | 37 | 1016.8 |
| 20260508033019 | 64 | 169 | 5.0 | 8.0 | 0.00 | 0.00 | 0.00 | 40 | 1016.8 |
| 20260508032030 | 64 | 169 | 4.0 | 5.0 | 0.00 | 0.00 | 0.00 | 40 | 1016.9 |
| 20260508031022 | 65 | 170 | 3.0 | 5.0 | 0.00 | 0.00 | 0.00 | 38 | 1017.2 |
| 20260508030034 | 65 | 218 | 2.0 | 4.0 | 0.00 | 0.00 | 0.00 | 37 | 1017.4 |
| 20260508025051 | 66 | 171 | 2.0 | 5.0 | 0.00 | 0.00 | 0.00 | 36 | 1017.3 |
| 20260508024023 | 65 | 134 | 2.0 | 5.0 | 0.00 | 0.00 | 0.00 | 36 | 1017.4 |
| 20260508023055 | 66 | 137 | 2.0 | 6.0 | 0.00 | 0.00 | 0.00 | 36 | 1017.4 |
| 20260508022026 | 66 | 147 | 4.0 | 9.0 | 0.00 | 0.00 | 0.00 | 36 | 1017.5 |
| 20260508021023 | 65 | 130 | 5.0 | 8.0 | 0.00 | 0.00 | 0.00 | 37 | 1017.8 |
| 20260508020016 | 64 | 155 | 4.0 | 7.0 | 0.00 | 0.00 | 0.00 | 43 | 1017.9 |
| 20260508015049 | 64 | 190 | 4.0 | 8.0 | 0.00 | 0.00 | 0.00 | 44 | 1017.7 |
| 20260508014021 | 65 | 168 | 6.0 | 8.0 | 0.00 | 0.00 | 0.00 | 41 | 1017.6 |
| 20260508013015 | 65 | 168 | 8.0 | 9.0 | 0.00 | 0.00 | 0.00 | 37 | 1017.6 |
| 20260508012027 | 66 | 144 | 4.0 | 8.0 | 0.00 | 0.00 | 0.00 | 39 | 1017.8 |
| 20260508011019 | 66 | 138 | 6.0 | 9.0 | 0.00 | 0.00 | 0.00 | 36 | 1017.7 |
| 20260508010032 | 66 | 170 | 9.0 | 12.0 | 0.00 | 0.00 | 0.00 | 36 | 1017.9 |
| 20260508005029 | 66 | 165 | 7.0 | 11.0 | 0.00 | 0.00 | 0.00 | 38 | 1017.9 |
| 20260508004022 | 66 | 179 | 7.0 | 9.0 | 0.00 | 0.00 | 0.00 | 40 | 1018.0 |
| 20260508003034 | 66 | 170 | 6.0 | 9.0 | 0.00 | 0.00 | 0.00 | 38 | 1018.1 |
| 20260508002032 | 65 | 170 | 5.0 | 7.0 | 0.00 | 0.00 | 0.00 | 39 | 1018.1 |
| 20260508001024 | 66 | 158 | 5.0 | 10.0 | 0.00 | 0.00 | 0.00 | 40 | 1018.1 |
| 20260508000018 | 65 | 187 | 4.0 | 6.0 | 0.00 | 0.00 | 0.00 | 41 | 1018.3 |
| 20260507235028 | 66 | 184 | 5.0 | 7.0 | 0.00 | 0.00 | 0.00 | 41 | 1018.4 |
| 20260507234026 | 66 | 180 | 5.0 | 7.0 | 0.00 | 0.00 | 0.00 | 40 | 1018.8 |
| 20260507233039 | 66 | 184 | 4.0 | 6.0 | 0.00 | 0.00 | 0.00 | 41 | 1018.9 |
| 20260507232031 | 65 | 204 | 4.0 | 6.0 | 0.00 | 0.00 | 0.00 | 42 | 1018.9 |
| 20260507231024 | 65 | 173 | 4.0 | 8.0 | 0.00 | 0.00 | 0.00 | 44 | 1018.9 |
| 20260507230021 | 64 | 179 | 5.0 | 6.0 | 0.00 | 0.00 | 0.00 | 48 | 1019.0 |
| 20260507225036 | 64 | 171 | 4.0 | 7.0 | 0.00 | 0.00 | 0.00 | 47 | 1019.2 |
| 20260507224028 | 64 | 188 | 4.0 | 7.0 | 0.00 | 0.00 | 0.00 | 45 | 1019.4 |
| 20260507223026 | 64 | 203 | 4.0 | 7.0 | 0.00 | 0.00 | 0.00 | 44 | 1019.4 |
| 20260507222019 | 65 | 171 | 4.0 | 6.0 | 0.00 | 0.00 | 0.00 | 43 | 1019.3 |
| 20260507221052 | 65 | 167 | 5.0 | 7.0 | 0.00 | 0.00 | 0.00 | 42 | 1019.3 |
| 20260507220024 | 64 | 167 | 5.0 | 7.0 | 0.00 | 0.00 | 0.00 | 43 | 1019.3 |
| 20260507215022 | 64 | 178 | 6.0 | 8.0 | 0.00 | 0.00 | 0.00 | 45 | 1019.4 |
| 20260507214035 | 64 | 191 | 4.0 | 5.0 | 0.00 | 0.00 | 0.00 | 48 | 1019.5 |
| 20260507213029 | 64 | 164 | 4.0 | 9.0 | 0.00 | 0.00 | 0.00 | 47 | 1019.4 |
| 20260507212017 | 64 | 153 | 6.0 | 9.0 | 0.00 | 0.00 | 0.00 | 46 | 1019.5 |
| 20260507211056 | 64 | 164 | 8.0 | 10.0 | 0.00 | 0.00 | 0.00 | 44 | 1019.4 |
| 20260507210028 | 64 | 171 | 8.0 | 10.0 | 0.00 | 0.00 | 0.00 | 45 | 1019.5 |
| 20260507205019 | 63 | 165 | 6.0 | 10.0 | 0.00 | 0.00 | 0.00 | 48 | 1019.5 |
| 20260507204031 | 63 | 177 | 6.0 | 8.0 | 0.00 | 0.00 | 0.00 | 51 | 1019.6 |
| 20260507203048 | 63 | 179 | 5.0 | 8.0 | 0.00 | 0.00 | 0.00 | 52 | 1019.5 |
| 20260507202019 | 63 | 205 | 5.0 | 8.0 | 0.00 | 0.00 | 0.00 | 53 | 1019.4 |
| 20260507201032 | 63 | 176 | 6.0 | 8.0 | 0.00 | 0.00 | 0.00 | 53 | 1019.4 |
| 20260507200023 | 63 | 169 | 5.0 | 10.0 | 0.00 | 0.00 | 0.00 | 52 | 1019.5 |
| 20260507195018 | 63 | 184 | 5.0 | 9.0 | 0.00 | 0.00 | 0.00 | 51 | 1019.7 |
| 20260507194030 | 63 | 156 | 4.0 | 8.0 | 0.00 | 0.00 | 0.00 | 53 | 1019.6 |
| 20260507193021 | 63 | 203 | 6.0 | 9.0 | 0.00 | 0.00 | 0.00 | 53 | 1019.7 |
| 20260507192034 | 63 | 198 | 6.0 | 9.0 | 0.00 | 0.00 | 0.00 | 54 | 1019.5 |
| 20260507191031 | 64 | 185 | 4.0 | 9.0 | 0.00 | 0.00 | 0.00 | 53 | 1019.7 |
| 20260507190024 | 64 | 192 | 6.0 | 8.0 | 0.00 | 0.00 | 0.00 | 52 | 1019.4 |
| 20260507185018 | 64 | 171 | 5.0 | 7.0 | 0.00 | 0.00 | 0.00 | 50 | 1019.3 |
| 20260507184028 | 64 | 175 | 6.0 | 8.0 | 0.00 | 0.00 | 0.00 | 51 | 1019.2 |
| 20260507183023 | 64 | 169 | 7.0 | 8.0 | 0.00 | 0.00 | 0.00 | 53 | 1019.1 |
| 20260507182036 | 65 | 159 | 5.0 | 10.0 | 0.00 | 0.00 | 0.00 | 47 | 1019.1 |
| 20260507181029 | 65 | 154 | 5.0 | 8.0 | 0.00 | 0.00 | 0.00 | 47 | 1019.2 |
| 20260507180023 | 65 | 183 | 3.0 | 5.0 | 0.00 | 0.00 | 0.00 | 50 | 1019.1 |
| 20260507175036 | 66 | 180 | 3.0 | 5.0 | 0.00 | 0.00 | 0.00 | 47 | 1019.2 |
| 20260507174029 | 66 | 176 | 3.0 | 7.0 | 0.00 | 0.00 | 0.00 | 50 | 1019.2 |
| 20260507173043 | 66 | 165 | 4.0 | 6.0 | 0.00 | 0.00 | 0.00 | 49 | 1018.9 |
| 20260507172035 | 66 | 157 | 4.0 | 6.0 | 0.00 | 0.00 | 0.00 | 56 | 1018.8 |
| 20260507171033 | 67 | 351 | 2.0 | 3.0 | 0.00 | 0.00 | 0.00 | 60 | 1018.9 |
| 20260507170026 | 68 | 351 | 1.0 | 3.0 | 0.00 | 0.00 | 0.00 | 57 | 1018.9 |
| 20260507165017 | 68 | 351 | 1.0 | 2.0 | 0.00 | 0.00 | 0.00 | 56 | 1018.9 |
| 20260507164028 | 68 | 351 | 0.0 | 2.0 | 0.00 | 0.00 | 0.00 | 58 | 1018.9 |
| 20260507163024 | 68 | 351 | 0.0 | 1.0 | 0.00 | 0.00 | 0.00 | 58 | 1018.9 |
| 20260507162018 | 68 | 351 | 0.0 | 1.0 | 0.00 | 0.00 | 0.00 | 58 | 1018.9 |
| 20260507161051 | 69 | 351 | 1.0 | 2.0 | 0.00 | 0.00 | 0.00 | 57 | 1019.1 |
| 20260507160023 | 69 | 351 | 2.0 | 3.0 | 0.00 | 0.00 | 0.00 | 57 | 1018.8 |
| 20260507155039 | 69 | 351 | 2.0 | 3.0 | 0.00 | 0.00 | 0.00 | 54 | 1018.6 |
| 20260507154031 | 70 | 351 | 2.0 | 4.0 | 0.00 | 0.00 | 0.00 | 50 | 1018.4 |
| 20260507153023 | 70 | 351 | 2.0 | 4.0 | 0.00 | 0.00 | 0.00 | 47 | 1018.4 |
| 20260507152034 | 71 | 340 | 2.0 | 6.0 | 0.00 | 0.00 | 0.00 | 45 | 1018.4 |
| 20260507151030 | 71 | 331 | 3.0 | 5.0 | 0.00 | 0.00 | 0.00 | 44 | 1018.5 |
| 20260507150023 | 71 | 333 | 2.0 | 5.0 | 0.00 | 0.00 | 0.00 | 46 | 1018.4 |
| 20260507145033 | 70 | 355 | 3.0 | 5.0 | 0.00 | 0.00 | 0.00 | 43 | 1018.4 |
| 20260507144027 | 71 | 338 | 4.0 | 8.0 | 0.00 | 0.00 | 0.00 | 45 | 1018.7 |
| 20260507143024 | 71 | 5 | 5.0 | 8.0 | 0.00 | 0.00 | 0.00 | 43 | 1018.6 |
| 20260507142017 | 72 | 348 | 5.0 | 10.0 | 0.00 | 0.00 | 0.00 | 40 | 1018.7 |
| 20260507141030 | 72 | 332 | 6.0 | 11.0 | 0.00 | 0.00 | 0.00 | 42 | 1018.8 |
| 20260507140022 | 72 | 331 | 7.0 | 12.0 | 0.00 | 0.00 | 0.00 | 42 | 1018.7 |
| 20260507135020 | 72 | 5 | 5.0 | 11.0 | 0.00 | 0.00 | 0.00 | 43 | 1018.7 |
| 20260507134033 | 72 | 348 | 7.0 | 11.0 | 0.00 | 0.00 | 0.00 | 45 | 1018.6 |
| 20260507133026 | 72 | 344 | 10.0 | 15.0 | 0.00 | 0.00 | 0.00 | 47 | 1018.7 |
| 20260507132039 | 74 | 27 | 11.0 | 15.0 | 0.00 | 0.00 | 0.00 | 46 | 1018.4 |
| 20260507131035 | 76 | 319 | 5.0 | 11.0 | 0.00 | 0.00 | 0.00 | 40 | 1018.6 |
| 20260507130027 | 76 | 250 | 3.0 | 12.0 | 0.00 | 0.00 | 0.00 | 33 | 1018.5 |
| 20260507125040 | 76 | 148 | 6.0 | 20.0 | 0.00 | 0.00 | 0.00 | 30 | 1018.6 |
| 20260507124052 | 76 | 123 | 12.0 | 20.0 | 0.00 | 0.00 | 0.00 | 31 | 1018.7 |
| 20260507123026 | 77 | 150 | 8.0 | 17.0 | 0.00 | 0.00 | 0.00 | 30 | 1018.7 |
| 20260507122019 | 76 | 152 | 13.0 | 19.0 | 0.00 | 0.00 | 0.00 | 30 | 1018.9 |
| 20260507121032 | 77 | 148 | 9.0 | 18.0 | 0.00 | 0.00 | 0.00 | 30 | 1018.9 |
| 20260507120025 | 77 | 213 | 7.0 | 15.0 | 0.00 | 0.00 | 0.00 | 29 | 1019.1 |
| 20260507115042 | 77 | 157 | 10.0 | 17.0 | 0.00 | 0.00 | 0.00 | 30 | 1019.2 |
| 20260507114035 | 76 | 81 | 2.0 | 10.0 | 0.00 | 0.00 | 0.00 | 41 | 1019.1 |
| 20260507113027 | 76 | 321 | 4.0 | 9.0 | 0.00 | 0.00 | 0.00 | 41 | 1019.0 |
| 20260507112020 | 75 | 67 | 4.0 | 11.0 | 0.00 | 0.00 | 0.00 | 44 | 1019.0 |
| 20260507111017 | 75 | 348 | 5.0 | 10.0 | 0.00 | 0.00 | 0.00 | 43 | 1018.9 |
| 20260507110028 | 73 | 17 | 7.0 | 11.0 | 0.00 | 0.00 | 0.00 | 45 | 1019.0 |
| 20260507105020 | 74 | 5 | 3.0 | 12.0 | 0.00 | 0.00 | 0.00 | 46 | 1019.0 |
| 20260507104054 | 73 | 360 | 8.0 | 12.0 | 0.00 | 0.00 | 0.00 | 46 | 1019.0 |
| 20260507103030 | 74 | 349 | 5.0 | 10.0 | 0.00 | 0.00 | 0.00 | 46 | 1018.9 |
| 20260507102042 | 73 | 32 | 7.0 | 11.0 | 0.00 | 0.00 | 0.00 | 46 | 1018.9 |
| 20260507101036 | 74 | 351 | 8.0 | 11.0 | 0.00 | 0.00 | 0.00 | 45 | 1019.0 |
| 20260507100030 | 74 | 348 | 6.0 | 10.0 | 0.00 | 0.00 | 0.00 | 45 | 1019.1 |
| 20260507095048 | 74 | 360 | 6.0 | 10.0 | 0.00 | 0.00 | 0.00 | 44 | 1019.3 |
| 20260507094018 | 75 | 5 | 6.0 | 9.0 | 0.00 | 0.00 | 0.00 | 44 | 1019.2 |
| 20260507093030 | 75 | 313 | 5.0 | 9.0 | 0.00 | 0.00 | 0.00 | 43 | 1019.2 |